Weather in Khujand

Tajikistan     40°17′00″N   69°37′26″E
temp.,
°C
wind,
m/s
gust,
m/s
humid.,
%
clouds,
%
prec.,
mm/h
press.,
hPa
HPBL,
m
12 august, fri
fri1223:00+23wsw33280 0.0 100925
02:00+21w33320 0.0 100923
05:00+20wnw33340 0.0 101020
08:00+24wnw34270 0.0 1011336
11:00+30wnw43200 0.0 10091146
14:00+34wnw44150 0.0 10071860
17:00+35wnw45150 0.0 10052265
20:00+28wsw34210 0.0 100631
13 august, sat
sat1323:00+25wsw33250 0.0 100617
02:00+22wnw33260 0.0 100718
05:00+21wnw33330 0.0 100719
08:00+25w34260 0.0 1008379
11:00+32wnw32170 0.0 1007944
14:00+36wnw32120 0.0 10041846
17:00+37wnw34120 0.0 10022078
20:00+29wsw33180 0.0 100217
14 august, sun
sun1423:00+26wnw22250 0.0 100212
02:00+25wsw33250 0.0 100215
05:00+22nw33260 0.0 100417
08:00+27w35260 0.0 1005407
11:00+33wnw44170 0.0 1003913
14:00+38wnw44120 0.0 10011685
17:00+39wnw45100 0.0 10002639
20:00+30nw23170 0.0 100115
15 august, mon
mon1523:00+28wsw33200 0.0 100130
02:00+26w33220 0.0 100116
05:00+24w23240 0.0 100214
08:00+30w34170 0.0 1003299
11:00+36wnw44120 0.0 10021241
14:00+40wnw65100 0.0 10012690
17:00+40wnw76100 0.0 10003456
20:00+31nw34160 0.0 100131
16 august, tue
tue1623:00+28sw33190 0.0 100228
02:00+26wnw22220 0.0 100312
05:00+25wnw33230 0.0 100415
08:00+29w45190 0.0 1006380
11:00+35wnw56140 0.0 10041283
14:00+39wnw78110 0.0 10022817
17:00+38wnw88110 0.0 10023110
20:00+31wnw410160 0.0 1003149